Regional Weather Roundup
Issued by NWS

Home | Current Version | Previous Version | Text Only | Print | Product List | Glossary Off
Versions: 1 2 3 4 5 6 7 8 9 10 11 12 13 14 15 16 17 18 19 20 21 22 23 24 25 26 27 28 29 30 31 32 33 34 35 36 37 38 39 40 41 42 43 44 45 46 47 48 49 50

814
ASUS44 KLIX 171510
RWRLA
LOUISIANA WEATHER ROUNDUP
NATIONAL WEATHER SERVICE NEW ORLEANS LA
1000 AM CDT WED SEP 17 2014

NOTE: "FAIR" INDICATES FEW OR NO CLOUDS BELOW 12,000 FEET WITH NO
      SIGNIFICANT WEATHER AND/OR OBSTRUCTIONS TO VISIBILITY.
      SKY/WX - SKY CONDITION AND SIGNIFICANT WEATHER.
      TMP - AIR TEMPERATURE.    DP   - DEWPOINT TEMPERATURE.
      RH  - RELATIVE HUMIDITY.  PRES - PRESSURE.
      HX  - HEAT INDEX.         WCI  - WIND CHILL INDEX.

*  THESE STATIONS ARE NOT NWS OR FAA STATIONS AND ARE NOT UNDER
   NWS QUALITY CONTROL.

LAZ040-048-061>063-065-066-069-171600-
SOUTHEAST LOUISIANA

CITY           SKY/WX    TMP DP  RH WIND       PRES   REMARKS
N.O. AUDUBON     N/A     87  76  69 MISG        N/A  HX  97
N.O. INTL ARPT PTSUNNY   83  73  72 N7        29.98S
N.O. LAKEFRONT MOSUNNY   81  72  74 NE3       29.99R
N.O. DOWNTOWN* FAIR      82  70  65 CALM      29.99S
SLIDELL        MOSUNNY   81  72  74 N6        29.98S
BATON ROUGE    MOSUNNY   79  72  79 NE5       30.00R
BOOTHVILLE     SUNNY     83  72  69 CALM      29.98S
BELLE CHASSE   PTSUNNY   83  72  69 NE5       29.97F
BOGALUSA*      PTSUNNY   79  71  78 CALM      30.00S
GALLIANO*      NOT AVBL
NEW ROADS*     FAIR      76  73  91 CALM      30.00R
GONZALES*      CLOUDY    76  76  98 NE3       30.00R
HAMMOND*       CLOUDY    79  72  78 CALM      30.01S
HOUMA*         MOSUNNY   82  72  69 N3        29.99S
PORT FOURCHON* MOSUNNY   82  75  78 NE5       30.02R

$$

LAZ041-044-053-054-171600-
SOUTHWEST LOUISIANA

CITY           SKY/WX    TMP DP  RH WIND       PRES   REMARKS
LAKE CHARLES   SUNNY     79  74  84 CALM      29.98S
LAFAYETTE      MOSUNNY   80  73  79 CALM      29.99R
PATTERSON      MOSUNNY   79  73  83 E5        30.02F
SALT POINT       N/A     82  74  76 VRB3      29.99S
NEW IBERIA     SUNNY     81  73  76 E5        30.00R
CHENAULT AIRPK NOT AVBL

$$

LAZ027-028-171600-
CENTRAL LOUISIANA

CITY           SKY/WX    TMP DP  RH WIND       PRES   REMARKS
FORT POLK      CLOUDY    73  73 100 CALM      30.00R
ALEXANDRIA INT CLOUDY    72  72 100 CALM      29.98S FOG
ALEXANDRIA     MOSUNNY   78  72  81 CALM      29.99S

$$

LAZ001-002-171600-
NORTHWEST LOUISIANA

CITY           SKY/WX    TMP DP  RH WIND       PRES   REMARKS
SHREVEPORT     PTSUNNY   79  72  79 SW3       29.98S
BARKSDALE AFB  MOSUNNY   80  71  75 CALM      29.98S
DTN SHREVEPORT PTSUNNY   80  72  76 CALM      29.98S

$$

LAZ014-016-171600-
NORTHEAST LOUISIANA

CITY           SKY/WX    TMP DP  RH WIND       PRES   REMARKS
MONROE         SUNNY     79  71  76 NE6       30.00R
TALLULAH       SUNNY     80  71  74 CALM      29.99R

$$




USA.gov is the U.S. government's official web portal to all federal, state and local government web resources and services.